Regional Weather Roundup
Issued by NWS

Home | Current Version | Previous Version | Graphics & Text | Print | Product List | Glossary On
Versions: 1 2 3 4 5 6 7 8 9 10 11 12 13 14 15 16 17 18 19 20 21 22 23 24 25 26 27 28 29 30 31 32 33 34 35 36 37 38 39 40 41 42 43 44 45 46 47 48 49 50
000
ASUS43 KMPX 290910
RWRMN
WEATHER ROUNDUP FOR MINNESOTA
NATIONAL WEATHER SERVICE TWIN CITIES/CHANHASSEN MN
400 AM CDT WED MAR 29 2017


NOTE: "FAIR" INDICATES FEW OR NO CLOUDS BELOW 12,000 FEET WITH NO
SIGNIFICANT WEATHER AND/OR OBSTRUCTIONS TO VISIBILITY. N/A MEANS
CURRENT SKY AND/OR WEATHER CONDITIONS ARE NOT AVAILABLE.

MNZ060>063-068>070-291000-
   Twin Cities Metro

CITY           SKY/WX    TMP DP  RH WIND       PRES   REMARKS
TWIN CITIES    CLOUDY    43  33  68 CALM      30.19F
ST PAUL        CLOUDY    40  34  79 CALM      30.21S
CRYSTAL        CLOUDY    36  26  67 CALM      30.18F
BLAINE         CLOUDY    37  32  81 CALM      30.19F
LAKEVILLE      CLOUDY    36  36 100 CALM      30.19S
EDEN PRAIRIE   PTCLDY    42  33  70 NE5       30.18S
SOUTH ST PAUL  CLOUDY    40  32  71 CALM      30.20S
LAKE ELMO      FAIR      34  32  93 CALM      30.21S
$$
MNZ001>005-007-008-013>017-022>024-027-028-291000-
   Northwest Minnesota

CITY           SKY/WX    TMP DP  RH WIND       PRES   REMARKS
BEMIDJI        CLOUDY    29  24  80 E3        30.21S
HALLOCK        PTCLDY    39  30  70 SE8       30.17F
ROSEAU         PTCLDY    37  28  70 E7        30.21F
WARROAD        MOCLDY    32  28  86 E5        30.23F WCI  27
THIEF RVR FALL CLEAR     37  28  70 E10       30.20F
CROOKSTON      CLEAR     37  30  75 E7        30.19S
FOSSTON        CLOUDY    36  30  80 E6        30.20S
DETROIT LAKES  PTCLDY    41  30  65 NE3       30.19S
MOORHEAD       CLOUDY    36  32  87 CALM      30.19R
PARK RAPIDS    PTCLDY    35  25  66 NE3       30.19R
MAHNOMEN       FAIR      38  29  71 SE3       30.18S
$$
MNZ006-009>011-018-025>026-291000-
   North Central Minnesota

CITY           SKY/WX    TMP DP  RH WIND       PRES   REMARKS
BAUDETTE       CLEAR     31  23  72 E8        30.23F WCI  23
FLAG ISLAND    MOCLDY    36  21  55 SE5       30.24S
INTL FALLS     CLEAR     32  23  69 E8        30.25F WCI  25
WASKISH        CLOUDY    34  27  75 E7        30.23S WCI  28
BIG FORK       PTCLDY    36  27  69 CALM      30.24S
LONGVILLE      CLEAR     34  27  75 CALM      30.23R
GRAND RAPIDS   CLOUDY    35  26  69 SE7       30.27R WCI  29
CRANE LAKE     CLEAR     25  23  93 CALM      30.30S
ORR            CLEAR     32  21  64 CALM      30.24S
COOK           CLEAR     28  25  86 NE3       30.26S
WALKER         FAIR      34  26  73 E3        30.22R
$$
MNZ012-019>021-037-291000-
   Northeast Minnesota

CITY           SKY/WX    TMP DP  RH WIND       PRES   REMARKS
DULUTH         CLEAR     34  23  64 E13       30.27R WCI  25
ELY            CLEAR     27  25  93 CALM      30.28S
HIBBING        CLEAR     26  24  92 CALM      30.27R
EVELETH        CLEAR     32  25  74 NE3       30.28R
DULUTH HARBOR  CLEAR     36  32  87 NE15      30.31R
TWO HARBORS    CLEAR     36  25  64 NE9       30.28S
GRAND MARAIS     N/A     34  24  67 NE12      30.35S WCI  25
G MARAIS ARPRT CLEAR     27  18  69 E7        30.30F WCI  19
$$
MNZ029>031-032-039>041-046>048-054>057-064-291000-
   West Central Minnesota

CITY           SKY/WX    TMP DP  RH WIND       PRES   REMARKS
FERGUS FALLS   PTCLDY    41  30  65 E6        30.20S
WHEATON        CLOUDY    37  37 100 CALM      30.19S FOG
MORRIS         CLOUDY    37  34  87 E6        30.16S
ALEXANDRIA     CLOUDY    37  31  78 E5        30.18S
ELBOW LAKE     FAIR      40  37  88 CALM      30.17F
WADENA         CLOUDY    36  27  69 CALM      30.18F
GLENWOOD       CLOUDY    39  32  75 E6        30.18F
APPLETON       CLOUDY    36  34  93 CALM      30.17S
BENSON         CLOUDY    34  28  80 E5        30.18F WCI  30
ORTONVILLE     MOCLDY    37  34  87 CALM      30.17S
MADISON        CLOUDY    39  39 100 CALM      30.17S
WILLMAR        FAIR      37  32  81 E3        30.19S
$$
MNZ033>034-036-042>043-049>051-058-059-291000-
   Central Minnesota

CITY           SKY/WX    TMP DP  RH WIND       PRES   REMARKS
ST CLOUD       CLOUDY    33  29  85 E3        30.20R
SAUK CENTRE    FAIR      31  30  94 CALM      30.19S
PAYNESVILLE    CLOUDY    31  31 100 CALM      30.20S
AITKIN         PTCLDY    34  27  75 NE3       30.22R
PINE RIVER     CLOUDY    36  28  75 E3        30.25R
BRAINERD       PTCLDY    36  28  73 E7        30.21S
STAPLES        CLEAR     37  27  65 E5        30.19F
LONG PRAIRIE   FAIR      32  30  93 N3        30.19S
LITTLE FALLS   PTCLDY    30  28  93 E3        30.20S
LITCHFIELD     CLOUDY    39  36  87 CALM      30.19S
BUFFALO        CLOUDY    35  29  79 CALM      30.20S
MAPLE LAKE     CLOUDY    37  30  78 CALM      30.20F
HUTCHINSON     PTCLDY    38  33  83 CALM      30.19S
$$
MNZ037-044-045-052-053-291000-
   East Central Minnesota

CITY           SKY/WX    TMP DP  RH WIND       PRES   REMARKS
PRINCETON      CLOUDY    39  28  65 NE3       30.21R
MORA           CLOUDY    34  28  80 CALM      30.24S
CAMBRIDGE      CLOUDY    39  28  65 NE3       30.19S
RUSH CITY      CLOUDY    35  28  77 NE6       30.22S WCI  29
MOOSE LAKE     MOCLDY    32  30  93 NE8       30.24R WCI  25
CLOQUET        CLOUDY    34  25  69 E9        30.26R WCI  26
MCGREGOR       CLOUDY    32  30  93 E5        30.24S WCI  27
$$
MNZ071>073-080-081-089-090-097-098-291000-
   Southwest Minnesota

CITY           SKY/WX    TMP DP  RH WIND       PRES   REMARKS
MONTEVIDEO     CLOUDY    37  30  75 S5        30.17S
GRANITE FALLS  CLOUDY    44  33  65 E3        30.18S
CANBY          MOCLDY    38  35  87 CALM      30.18R
MARSHALL       CLOUDY    40  34  79 CALM      30.17S
REDWOOD FALLS  CLOUDY    45  32  60 E6        30.17S
OLIVIA         MOCLDY    39  32  75 E3        30.17S
PIPESTONE      MOCLDY    41  32  70 E3        30.14S
WINDOM         MOCLDY    41  36  81 E5        30.15F
WORTHINGTON    CLOUDY    39  36  89 E3        30.15F
JACKSON        CLOUDY    39  36  87 E3        30.15F
TRACY          CLOUDY    45  37  73 CALM      30.16F
SLAYTON        CLOUDY    38  35  88 CALM      30.16S
$$
MNZ065>067-074>077-082>085-091>093-291000-
   South Central Minnesota

CITY           SKY/WX    TMP DP  RH WIND       PRES   REMARKS
MANKATO        CLOUDY    44  36  73 E5        30.18S
NEW ULM        CLOUDY    45  34  65 CALM      30.17F
ST JAMES       CLOUDY    39  36  87 CALM      30.18F
FAIRMONT       CLOUDY    41  36  82 CALM      30.16F
GLENCOE        CLOUDY    37  34  87 CALM      30.18S
FARIBAULT      CLOUDY    37  36  93 CALM      30.19S
OWATONNA       CLOUDY    41  34  75 CALM      30.19S
WASECA         CLOUDY    41  36  81 E3        30.20S
ALBERT LEA     CLOUDY    37  36  93 E3        30.17F
$$
MNZ078>079-086>088-094>096-291000-
   Southeast Minnesota

CITY           SKY/WX    TMP DP  RH WIND       PRES   REMARKS
ROCHESTER      PTCLDY    40  35  83 SE9       30.20R
RED WING       CLOUDY    36  30  80 CALM      30.20S
STANTON        CLOUDY    36  32  88 CALM      30.19R
DODGE CENTER   PTCLDY    39  36  87 SE9       30.19S
WINONA         CLOUDY    36  36 100 CALM      30.22S
AUSTIN         CLOUDY    39  36  87 E7        30.18S
PRESTON        CLOUDY    41  34  76 E3        30.20R
$$
ABBREVIATIONS USED IN REMARKS
   TC - TEMPERATURES IN CELSIUS
  WCI - WIND CHILL INDEX
   HX - HEAT INDEX
  VSB - VISIBILITY
$$



USA.gov is the U.S. government's official web portal to all federal, state and local government web resources and services.